User: anonymous   Login
Location: ECC Obs
(38.4314°N, 90.9815°W)
Time: 06:19:09
(UTC-05:00)
Language:

Tiros 1 despin weight - Orbit

View from above orbital plane
View from above orbital plane
View from above satellite
View from above satellite

Ground track
Ground track

The orbit data is extracted from the following two-line orbital elements,

1   115U 60002D   20099.81859013 +.00000004 +00000-0 +27602-4 0  9995
2   115 048.1661 249.0726 0034922 301.4400 058.3100 14.83560840181474
Epoch (UTC): 08 April 2020 19:38:46
Eccentricity: 0.0034922
inclination: 48.1661°
perigee height: 593 km
apogee height: 642 km
right ascension of ascending node: 249.0726°
argument of perigee: 301.4400°
revolutions per day: 14.83560840
mean anomaly at epoch: 58.3100°
orbit number at epoch: 18147

The dashed part of the orbit path shows where the satellite is in the earth's shadow,  

DLR